Terminal Aerodrome Forecast
Issued by NWS Denver/Boulder, CO

Home | Current Version | Previous Version | Graphics & Text | Print | Product List | Glossary On
Versions: 1 2 3 4 5 6 7 8 9 10 11 12 13 14 15 16 17 18 19 20 21 22 23 24 25 26 27 28 29 30 31 32 33 34 35 36 37 38 39 40 41 42
000
FTUS45 KBOU 240052 AAA
TAFDEN
TAF AMD
KDEN 240052Z 2401/2506 04020G35KT 5SM TSRAGS BKN050CB OVC100
      TEMPO 2401/2402 VRB25G48KT
     FM240300 30015KT P6SM SCT100 BKN200
     FM240600 25008KT P6SM SCT220
     FM241100 21008KT P6SM SCT220
     FM242000 03006KT P6SM FEW100 SCT220
     FM250300 22010KT P6SM FEW140 SCT220=

USA.gov is the U.S. government's official web portal to all federal, state and local government web resources and services.